COSMOS 2251 DEB, 34433

Orbit data source: Space-Track

COSMOS 2251 DEB, 34433 is space debris in LEO originally from a launch on Wed, 16 Jun 1993 UTC launched from the Plesetsk Missile And Space Complex (PKMTR). The debris from Iridium 33, an American commercial communications satellite, has been tracked extensively since its accidental collision with the defunct Russian satellite Cosmos 2251 in 2009. This event, occurring at high speed in low Earth orbit (LEO), generated thousands of pieces of space debris, significantly increasing the risk of further collisions. The Iridium 33 debris cloud has impacted space traffic management and orbital debris mitigation strategies, making it a subject of ongoing study in space situational awareness.

Loading next visibility...
Identifier
34433, 1993-036SA
Orbit
LEO
Country
Flag of CISCIS
Related business
Manufacturer
Unknown
Mission
Spacecraft
Bus & Motor
Unknown
Mass
Unknown
Launch date (UTC)
1993-06-16 (33 years ago)
Launch vehicle
Unknown
Launch site
Plesetsk Missile And Space Complex (PKMTR)
Object type
Payload
Rocket body
Debris
Shape & HBR
Unknown shape, 0.1 m
Radar Cross Section
Small (<0.1 m²)

Expand to show TLE details & history
Last TLE update: 18 hours ago

TLE from 18 hours ago
0 COSMOS 2251 DEB
1 34433U 93036SA  25354.84382545  .00001574  00000-0  76987-3 0  9993
2 34433  74.0101 140.5858 0152723 276.9549  81.4241 14.12884599860640
Epoch: 2025-12-20T20:15Z
TLE epoch observation values (Epoch: 2025-12-20T20:15:06.518Z)
Latitude
-0.00002°
Longitude
107.14383°
Altitude
837.291 km
Speed
7.442 km/s
True Right ascension
09h 22m 20s
True Declination
0° 00' 00"
Sunlit
Object was in full shadow at epoch
Visualization orbit readout
Latitude
Unknown
Longitude
Unknown
Altitude
Unknown
Speed
Unknown
Apparent Right ascension
Unknown
Apparent Declination
Unknown
Sunlit
N/A
Visualization observer readout
Local Sidereal Time
12:50:35
Azimuth
Unknown
Elevation
Unknown
Doppler factor
Unknown
Orbital elements
Apogee altitude
957.516 km
Perigee altitude
736.821 km
Semi-major axis
7,225.305 km
Eccentricity
0.01527
Inclination
74.0101°
RAAN
140.5858°
Arg. of periapsis
276.9549°
True anomaly
83.15928°
Mean anomaly
81.4241°
Eccentric anomaly
82.29123°
Mean motion
3.53394 °/min
Orbital period
101.87 mins
BSTAR
0.00076987
Loading maneuver chart data...
Computing Atmospheric mass density...
Loading historical data...
Loading historical data...
Loading historical data...
Loading historical data...
Loading historical data...
Loading historical data...
Loading historical data...

Documentation

Showing up to 5 results
|